Regional Weather Roundup
Issued by NWS Cleveland, OH

Home | Current Version | Previous Version | Text Only | Print | Product List | Glossary On
Versions: 1 2 3 4 5 6 7 8 9 10 11 12 13 14 15 16 17 18 19 20 21 22 23 24 25 26 27 28 29 30 31 32 33 34 35 36 37 38 39 40 41 42 43 44 45 46 47 48 49 50
000
ASUS41 KCLE 281910
RWRCLE
OHIO REGIONAL WEATHER ROUNDUP
NATIONAL WEATHER SERVICE CLEVELAND, OH
300 PM EDT FRI AUG 28 2015

NOTE: "FAIR" INDICATES FEW OR NO CLOUDS BELOW 12,000 FEET WITH NO
SIGNIFICANT WEATHER AND/OR OBSTRUCTIONS TO VISIBILITY.

OHZ001>008-015>018-024>027-034-035-043-044-282000-
   NORTHWEST OHIO

CITY           SKY/WX    TMP DP  RH WIND       PRES   REMARKS
DEFIANCE       CLOUDY    77  56  48 S5        30.17F
FINDLAY        MOSUNNY   77  55  46 CALM      30.17F
TOLEDO EXPRESS PTSUNNY   75  57  53 VRB6      30.16F
TOLEDO EXEC    PTSUNNY   77  55  46 CALM      30.18F
LIMA           PTSUNNY   76  54  46 CALM      30.18F
$$

OHZ009>014-019>023-028>033-038-089-282000-
   NORTHEAST OHIO

CITY           SKY/WX    TMP DP  RH WIND       PRES   REMARKS
CLE-HOPKINS    MOSUNNY   75  57  53 N10       30.20F
CLE-LAKEFRONT  MOSUNNY   75  59  57 N9        30.18F
CUY CO. ARPT   MOSUNNY   75  59  57 N12       30.19F
LORAIN-ELYRIA  MOSUNNY   75  58  55 N5        30.19F
ASHTABULA      MOSUNNY   74  55  51 W6        30.21F
AKRON-CANTON   MOSUNNY   78  52  40 CALM      30.19F
WOOSTER        MOSUNNY   78  51  38 CALM      30.19F
MANSFIELD      PTSUNNY   76  53  44 W7        30.19F
YOUNGSTOWN     PTSUNNY   74  53  48 VRB3      30.20F
$$

OHZ042-051>053-060>062-070>072-077>081-282000-
  SOUTHWEST OHIO

CITY           SKY/WX    TMP DP  RH WIND       PRES   REMARKS
CINC-COVINGTON SUNNY     80  55  42 E9        30.16F
CINC-LUNKEN    MOSUNNY   79  57  46 VRB5      30.16F
HAMILTON       SUNNY     80  56  43 MISG      30.17F
DAYTON         PTSUNNY   77  55  46 E9        30.18F
WRIGHT-PAT AFB MOSUNNY   78  55  45 VRB5      30.17F
DAYTON GENERAL MOSUNNY   77  56  48 VRB3      30.17F
WILMINGTON     SUNNY     75  55  49 VRB5      30.18F
$$

OHZ036-037-039>041-045>050-054>059-063>069-073>076-082>088-282000-
  CENTRAL AND SOUTHEAST OHIO

CITY           SKY/WX    TMP DP  RH WIND       PRES   REMARKS
COLUMBUS       MOSUNNY   78  53  41 CALM      30.17F
OSU AIRPORT    MOSUNNY   79  55  43 VRB3      30.17F
BOLTON FIELD   MOSUNNY   77  57  50 CALM      30.19F
RICKENBACK AFB SUNNY     78  55  44 CALM      30.17F
NEWARK         CLOUDY    77  54  44 VRB5      30.18F
MARION         MOSUNNY   77  52  41 CALM      30.18F
LANCASTER      MOSUNNY   80  55  42 CALM      30.18F
ZANESVILLE     MOSUNNY   80  51  36 NE5       30.18F
NEW PHILLY     SUNNY     79  51  37 VRB3      30.19F
$$


USA.gov is the U.S. government's official web portal to all federal, state and local government web resources and services.